Weather observations for the past three days for
Rock Hill, Rock Hill - York County Airport
Imperial (Metric)
Date Time (edt) Wind (mph) Vis. (mi.) Weather Sky Cond. Temperature (ºF) Relative Humidity Wind Chill (°F) Heat Index (°F) Pressure Precipitation (in)
Air Dwpt 6 hour altimeter (in) sea level (mb) 1 hr 3 hr 6 hr
Max. Min.
14 09:54 W 7 10.00 Fair CLR 87.1 72 61% 94 30.15 1019.4
14 08:54 W 6 10.00 Fair CLR 82.9 73 72% 89 30.16 1019.6
14 07:54 SW 5 8.00 Fair CLR 78.1 73.9 78.1 72 87% 81 30.15 1019.5
14 06:54 S 3 6.00 Fog/Mist CLR 73.9 73 97% 30.14 1019.2
14 05:54 SW 5 9.00 Fair CLR 73 72 96% 30.14 1019.0
14 04:54 SW 5 9.00 Fair CLR 73 72 96% 30.13 1018.7
14 03:54 W 3 10.00 Fair CLR 75.9 73 91% 76 30.13 1018.6
14 02:54 W 5 10.00 Fair CLR 75.9 73 91% 76 30.14 1019.0
14 01:54 S 3 10.00 Fair CLR 75.9 73 87.1 73.9 91% 76 30.15 1019.4
14 00:54 SW 5 10.00 Fair CLR 75.9 72 88% 76 30.16 1019.6
13 23:54 Calm 10.00 Partly Cloudy SCT120 80.1 72 76% 84 30.16 1019.8
13 22:54 S 3 10.00 A Few Clouds FEW120 80.1 73 79% 84 30.16 1019.9
13 21:54 Calm 10.00 Fair CLR 81 73 77% 86 30.16 1019.6
13 20:54 S 5 10.00 Fair CLR 82 73 74% 87 30.15 1019.4
13 19:54 SW 3 10.00 Light Rain CLR 86 73.9 93.9 86 67% 94 30.15 1019.4
13 18:54 W 6 10.00 Light Rain CLR 89.1 70 53% 94 30.14 1019.1
13 17:54 W 3 10.00 Fair CLR 91 68 47% 95 30.13 1018.8
13 16:54 Vrbl 3 10.00 A Few Clouds FEW055 93 69.1 46% 98 30.13 1018.9
13 15:54 Calm 10.00 A Few Clouds FEW049 91.9 70 49% 98 30.15 1019.3
13 14:54 SW 5 10.00 Mostly Cloudy BKN045 91 73 56% 100 30.16 1019.8
13 13:54 Vrbl 3 10.00 Partly Cloudy SCT040 91 72 91.9 75 54% 99 30.18 1020.5
13 12:54 NW 5 10.00 Partly Cloudy SCT032 87.1 73 63% 95 30.2 1021.3
13 11:54 W 6 10.00 A Few Clouds FEW110 86 73 65% 93 30.22 1021.8
13 10:54 Calm 10.00 Overcast FEW025 OVC100 82.9 72 70% 88 30.23 1022.1
13 09:54 NE 6 10.00 Fair CLR 82 72 72% 87 30.22 1022.0
13 08:54 N 5 10.00 Fair CLR 79 72 79% 82 30.22 1021.8
13 07:54 N 7 9.00 A Few Clouds FEW006 75 72 75 69.1 90% 74 30.2 1021.5
13 06:54 Vrbl 3 7.00 Overcast OVC006 72 72 100% 30.19 1021.0
13 05:54 Calm 8.00 Mostly Cloudy BKN006 70 70 100% 30.17 1020.1
13 04:54 Calm 8.00 A Few Clouds FEW010 71.1 71.1 100% 30.16 1019.9
13 03:54 Calm 10.00 A Few Clouds FEW026 72 71.1 97% 30.15 1019.6
13 02:54 Calm 10.00 Partly Cloudy SCT026 70 70 100% 30.15 1019.8
13 01:54 Calm 10.00 Fair CLR 71.1 71.1 81 71.1 100% 30.16 1019.9
13 00:54 Calm 10.00 Fair CLR 71.1 70 96% 30.17 1020.4
12 23:54 Calm 10.00 Fair CLR 73 71.1 94% 30.17 1020.4
12 22:54 Calm 10.00 Fair CLR 75 71.1 88% 75 30.17 1020.2
12 21:54 Vrbl 3 10.00 Fair CLR 77 72 85% 78 30.14 1019.3
12 20:54 NE 3 10.00 Fair CLR 78.1 73 85% 81 30.12 1018.7
12 19:54 NE 6 10.00 Fair CLR 81 73 88 81 77% 86 30.11 1018.1
12 18:54 NE 7 10.00 Fair CLR 82.9 73 72% 89 30.1 1017.8
12 17:54 Vrbl 7 10.00 Fair CLR 87.1 72 61% 94 30.09 1017.4
12 16:54 Vrbl 5 10.00 Partly Cloudy SCT029 SCT035 86 73 65% 93 30.07 1016.8
12 15:54 Vrbl 7 10.00 Fair CLR 86 73.9 67% 94 30.09 1017.4
12 14:54 N 10 G 18 10.00 Mostly Cloudy SCT023 SCT032 BKN039 86 73.9 67% 94 30.1 1017.7
12 13:54 NE 7 10.00 Overcast FEW019 BKN030 OVC045 82 73.9 84.9 75.9 77% 88 30.1 1018.0
12 12:54 N 7 10.00 Overcast FEW024 OVC033 80.1 73.9 82% 85 30.12 1018.6
12 11:54 NE 6 10.00 Overcast FEW020 SCT026 OVC039 81 73 77% 86 30.12 1018.5
12 10:54 Vrbl 7 10.00 Overcast SCT017 BKN024 OVC040 81 72 74% 85 30.11 1018.3
12 09:54 Vrbl 7 10.00 Mostly Cloudy BKN060 80.1 72 76% 84 30.09 1017.6
12 08:54 NE 6 10.00 Overcast OVC100 78.1 70 76% 80 30.09 1017.5
12 07:54 NE 3 10.00 Overcast OVC060 75.9 71.1 75.9 70 85% 76 30.08 1017.0
12 06:54 Calm 10.00 Overcast OVC070 73.9 69.1 85% 30.06 1016.3
12 05:54 Calm 10.00 Mostly Cloudy BKN075 72 68 87% 30.05 1015.9
12 04:54 N 3 10.00 Overcast BKN047 BKN060 OVC080 71.1 68 90% 30.05 1015.9
12 03:54 Calm 10.00 Fair CLR 71.1 66.9 87% 30.04 1015.7
12 02:54 Calm 10.00 Fair CLR 71.1 68 90% 30.03 1015.3
12 01:54 N 3 10.00 A Few Clouds FEW100 71.1 68 87.1 71.1 90% 30.04 1015.7
12 00:54 Calm 10.00 Partly Cloudy SCT095 72 68 87% 30.04 1015.8
11 23:54 Calm 10.00 Fair CLR 72 66.9 84% 30.04 1015.9
11 22:54 Calm 10.00 Fair CLR 75 66.9 76% 76 30.03 1015.6
11 21:54 Calm 10.00 Fair CLR 78.1 66 67% 80 30.02 1015.2
11 20:54 Calm 10.00 Fair CLR 80.1 66 62% 82 30.02 1015.1
11 19:54 Vrbl 3 10.00 Partly Cloudy SCT065 87.1 64.9 91 87.1 48% 89 30.02 1014.9
11 18:54 N 7 10.00 A Few Clouds FEW070 88 63 43% 89 30 1014.5
11 17:54 N 6 10.00 Fair CLR 90 63 41% 91 29.99 1013.9
11 16:54 N 6 10.00 A Few Clouds FEW070 90 63 41% 91 29.99 1014.0
11 15:54 N 7 10.00 Fair CLR 91 63 39% 92 29.99 1014.0
11 14:54 Vrbl 6 10.00 Fair CLR 90 63 41% 91 30 1014.2
11 13:54 Vrbl 7 10.00 Fair CLR 89.1 63 89.1 75 42% 90 30.01 1014.6
11 12:54 N 16 G 20 10.00 Fair CLR 87.1 62.1 43% 88 30.02 1015.0
11 11:54 NE 8 10.00 Fair CLR 84 61 46% 84 30.03 1015.4
11 10:54 NE 9 10.00 Fair CLR 82.9 62.1 49% 84 30.03 1015.5
Date Time (edt) Wind (mph) Vis. (mi.) Weather Sky Cond. Air Dwpt Max. Min. Relative Humidity Wind Chill (°F) Heat Index (°F) altimeter (in) sea level (mb) 1 hr 3 hr 6 hr
6 hour
Temperature (ºF) Pressure Precipitation (in)